QPF
0.00 0.00 0.00 0.00 0.00 0.00 0.00 0.00 0.01 0.00 0.00 0.00 0.01 0.02 0.03 0.03 0.03 0.04 0.04 0.03 0.02 0.03 0.05 0.04 0.06 0.05 0.06 0.05 0.05 0.06 0.08 0.07 0.07 0.08 0.08 0.07 0.06 0.04 0.04 0.04 0.03 0.02 0.02 0.01
0.01 0.00 0.00 0.00 0.00 0.00 0.00 0.00 0.01 0.01 0.00 0.00 0.01 0.01 0.01 0.02 0.03 0.03 0.04 0.03 0.02 0.02 0.02 0.03 0.03 0.03 0.04 0.04 0.04 0.05 0.05 0.05 0.05 0.05 0.06 0.04 0.03 0.03 0.04 0.04 0.03 0.03 0.03 0.02
0.00 0.00 0.00 0.00 0.00 0.00 0.00 0.00 0.00 0.00 0.00 0.00 0.01 0.01 0.01 0.00 0.01 0.01 0.02 0.03 0.01 0.01 0.01 0.02 0.02 0.02 0.02 0.03 0.04 0.03 0.03 0.03 0.03 0.03 0.02 0.02 0.02 0.03 0.04 0.04 0.04 0.03 0.02 0.02
0.00 0.00 0.00 0.00 0.00 0.00 0.01 0.01 0.00 0.00 0.01 0.01 0.01 0.04 0.02 0.01 0.01 0.01 0.01 0.01 0.01 0.00 0.00 0.01 0.01 0.01 0.01 0.01 0.02 0.03 0.03 0.02 0.02 0.03 0.03 0.03 0.03 0.05 0.04 0.03 0.03 0.02 0.01 0.01
0.00 0.00 0.00 0.00 0.00 0.00 0.00 0.00 0.00 0.00 0.00 0.01 0.01 0.03 0.03 0.02 0.03 0.03 0.02 0.01 0.00 0.00 0.00 0.01 0.01 0.01 0.01 0.01 0.01 0.02 0.02 0.02 0.02 0.02 0.02 0.03 0.03 0.03 0.02 0.02 0.02 0.02 0.01 0.01
0.00 0.00 0.00 0.00 0.00 0.00 0.00 0.00 0.00 0.01 0.03 0.06 0.05 0.04 0.04 0.03 0.01 0.01 0.02 0.01 0.00 0.00 0.00 0.01 0.01 0.01 0.01 0.01 0.01 0.02 0.02 0.02 0.02 0.01 0.01 0.02 0.02 0.02 0.02 0.02 0.02 0.01 0.01 0.01
0.00 0.00 0.00 0.00 0.00 0.00 0.00 0.01 0.05 0.10 0.13 0.08 0.04 0.03 0.04 0.01 0.00 0.00 0.01 0.01 0.00 0.00 0.00 0.01 0.00 0.00 0.00 0.01 0.02 0.02 0.02 0.02 0.01 0.01 0.01 0.01 0.01 0.01 0.01 0.01 0.01 0.01 0.00 0.01
0.00 0.00 0.00 0.00 0.00 0.00 0.00 0.01 0.05 0.09 0.09 0.07 0.04 0.04 0.02 0.01 0.00 0.00 0.00 0.00 0.00 0.00 0.00 0.00 0.00 0.00 0.00 0.00 0.01 0.02 0.02 0.02 0.01 0.01 0.01 0.01 0.01 0.01 0.01 0.00 0.00 0.00 0.00 0.00
0.00 0.01 0.01 0.01 0.00 0.00 0.01 0.00 0.01 0.02 0.03 0.06 0.06 0.04 0.01 0.01 0.00 0.00 0.00 0.00 0.00 0.00 0.00 0.00 0.00 0.00 0.00 0.00 0.00 0.01 0.01 0.01 0.00 0.00 0.00 0.01 0.01 0.00 0.00 0.00 0.00 0.00 0.00 0.00
0.01 0.02 0.02 0.01 0.00 0.00 0.00 0.00 0.00 0.00 0.03 0.05 0.06 0.04 0.02 0.01 0.00 0.01 0.01 0.00 0.00 0.00 0.00 0.00 0.00 0.00 0.00 0.00 0.00 0.00 0.01 0.01 0.00 0.00 0.00 0.00 0.00 0.00 0.00 0.00 0.00 0.00 0.00 0.00
0.01 0.02 0.01 0.01 0.00 0.00 0.00 0.00 0.00 0.00 0.01 0.03 0.06 0.04 0.03 0.02 0.01 0.00 0.00 0.00 0.00 0.00 0.00 0.00 0.00 0.00 0.00 0.00 0.00 0.00 0.00 0.00 0.00 0.00 0.00 0.00 0.00 0.00 0.00 0.00 0.00 0.00 0.00 0.00
0.01 0.01 0.01 0.01 0.01 0.01 0.00 0.01 0.01 0.01 0.02 0.02 0.05 0.04 0.02 0.01 0.01 0.00 0.00 0.00 0.00 0.00 0.00 0.00 0.00 0.00 0.00 0.00 0.00 0.00 0.00 0.00 0.00 0.00 0.00 0.00 0.00 0.00 0.00 0.01 0.00 0.00 0.00 0.00
0.03 0.02 0.03 0.04 0.03 0.02 0.02 0.01 0.01 0.01 0.01 0.01 0.02 0.03 0.01 0.00 0.01 0.00 0.00 0.00 0.00 0.00 0.00 0.00 0.00 0.00 0.00 0.00 0.00 0.00 0.00 0.00 0.00 0.00 0.00 0.00 0.00 0.00 0.01 0.00 0.00 0.00 0.00 0.00
0.02 0.02 0.03 0.09 0.11 0.09 0.06 0.02 0.01 0.00 0.01 0.01 0.01 0.01 0.01 0.00 0.00 0.00 0.00 0.00 0.00 0.00 0.00 0.00 0.00 0.00 0.00 0.00 0.00 0.00 0.00 0.00 0.00 0.00 0.00 0.00 0.00 0.00 0.00 0.00 0.00 0.00 0.00 0.00
0.01 0.02 0.02 0.05 0.09 0.07 0.04 0.02 0.01 0.00 0.01 0.01 0.02 0.02 0.01 0.01 0.01 0.00 0.00 0.00 0.00 0.01 0.00 0.00 0.00 0.00 0.00 0.00 0.00 0.00 0.00 0.00 0.00 0.00 0.00 0.00 0.00 0.00 0.00 0.00 0.00 0.00 0.00 0.00
0.03 0.03 0.03 0.05 0.04 0.05 0.03 0.02 0.01 0.01 0.00 0.00 0.01 0.02 0.02 0.02 0.03 0.01 0.00 0.00 0.00 0.01 0.01 0.00 0.00 0.00 0.00 0.00 0.00 0.00 0.00 0.00 0.00 0.00 0.00 0.00 0.00 0.00 0.00 0.00 0.00 0.00 0.00 0.00
0.06 0.05 0.04 0.05 0.03 0.04 0.05 0.02 0.01 0.01 0.00 0.00 0.01 0.03 0.01 0.02 0.02 0.01 0.00 0.00 0.00 0.00 0.00 0.00 0.00 0.00 0.00 0.00 0.00 0.00 0.00 0.00 0.00 0.00 0.00 0.00 0.00 0.00 0.00 0.00 0.00 0.01 0.00 0.01
0.05 0.06 0.05 0.04 0.06 0.06 0.02 0.01 0.01 0.01 0.01 0.01 0.01 0.01 0.00 0.00 0.01 0.01 0.00 0.00 0.00 0.00 0.00 0.00 0.00 0.00 0.00 0.00 0.00 0.00 0.00 0.00 0.00 0.00 0.00 0.00 0.00 0.00 0.00 0.00 0.00 0.01 0.00 0.01
0.02 0.06 0.06 0.06 0.10 0.07 0.03 0.01 0.02 0.02 0.01 0.01 0.00 0.00 0.00 0.00 0.00 0.00 0.00 0.00 0.00 0.00 0.00 0.00 0.00 0.00 0.00 0.00 0.00 0.00 0.00 0.00 0.00 0.00 0.00 0.00 0.00 0.00 0.00 0.00 0.00 0.01 0.01 0.01
0.01 0.02 0.06 0.09 0.13 0.12 0.09 0.03 0.02 0.03 0.04 0.01 0.00 0.00 0.00 0.00 0.00 0.01 0.00 0.00 0.00 0.00 0.00 0.00 0.00 0.00 0.00 0.00 0.00 0.00 0.00 0.00 0.00 0.00 0.00 0.00 0.01 0.00 0.00 0.00 0.00 0.01 0.01 0.00
0.04 0.07 0.07 0.07 0.12 0.12 0.09 0.05 0.04 0.06 0.07 0.02 0.01 0.00 0.01 0.00 0.00 0.00 0.00 0.00 0.00 0.00 0.00 0.00 0.00 0.00 0.00 0.00 0.00 0.01 0.01 0.01 0.01 0.01 0.01 0.01 0.01 0.01 0.01 0.01 0.01 0.01 0.01 0.01
0.10 0.10 0.11 0.10 0.13 0.13 0.08 0.08 0.08 0.07 0.02 0.01 0.01 0.00 0.00 0.00 0.01 0.01 0.01 0.01 0.00 0.00 0.00 0.00 0.00 0.00 0.00 0.01 0.02 0.02 0.02 0.03 0.03 0.02 0.02 0.01 0.02 0.01 0.00 0.01 0.01 0.00 0.00 0.01
0.10 0.11 0.11 0.11 0.11 0.07 0.03 0.04 0.08 0.04 0.01 0.01 0.00 0.00 0.01 0.01 0.01 0.01 0.01 0.01 0.01 0.00 0.00 0.00 0.00 0.00 0.00 0.00 0.01 0.01 0.02 0.02 0.02 0.02 0.02 0.02 0.03 0.03 0.01 0.01 0.01 0.01 0.01 0.01
0.10 0.07 0.08 0.09 0.08 0.05 0.04 0.02 0.02 0.02 0.01 0.01 0.00 0.00 0.01 0.01 0.01 0.01 0.01 0.02 0.01 0.00 0.00 0.00 0.00 0.00 0.00 0.00 0.00 0.00 0.01 0.02 0.02 0.02 0.02 0.01 0.02 0.02 0.02 0.01 0.01 0.01 0.01 0.01
0.09 0.06 0.08 0.10 0.08 0.05 0.03 0.02 0.01 0.01 0.01 0.01 0.00 0.00 0.01 0.01 0.02 0.02 0.02 0.02 0.01 0.00 0.00 0.00 0.00 0.00 0.00 0.00 0.00 0.00 0.00 0.01 0.01 0.01 0.02 0.01 0.01 0.01 0.02 0.01 0.01 0.01 0.01 0.01
0.06 0.07 0.10 0.11 0.07 0.06 0.03 0.01 0.00 0.00 0.01 0.00 0.00 0.00 0.01 0.02 0.02 0.02 0.02 0.02 0.01 0.00 0.00 0.00 0.00 0.01 0.01 0.00 0.00 0.01 0.01 0.01 0.02 0.02 0.02 0.02 0.02 0.03 0.02 0.02 0.02 0.02 0.01 0.02
MSLP
1008.18 1008.44 1008.56 1008.59 1008.61 1008.68 1008.86 1009.15 1009.52 1009.92 1010.29 1010.58 1010.75 1010.82 1010.81 1010.76 1010.76 1010.84 1011.03 1011.35 1011.74 1012.18 1012.61 1012.99 1013.28 1013.49 1013.64 1013.76 1013.90 1014.10 1014.37 1014.71 1015.09 1015.47 1015.81 1016.09 1016.28 1016.39 1016.44 1016.46 1016.49 1016.56 1016.70 1016.91
1008.36 1008.47 1008.44 1008.35 1008.30 1008.37 1008.58 1008.94 1009.41 1009.89 1010.33 1010.64 1010.80 1010.82 1010.74 1010.64 1010.58 1010.64 1010.85 1011.20 1011.67 1012.20 1012.70 1013.13 1013.45 1013.65 1013.77 1013.84 1013.93 1014.08 1014.32 1014.64 1015.03 1015.45 1015.83 1016.13 1016.35 1016.46 1016.50 1016.51 1016.52 1016.59 1016.75 1016.98
1008.28 1008.25 1008.11 1007.95 1007.88 1007.98 1008.28 1008.76 1009.34 1009.93 1010.42 1010.75 1010.87 1010.82 1010.64 1010.43 1010.30 1010.31 1010.51 1010.90 1011.45 1012.07 1012.67 1013.19 1013.58 1013.82 1013.94 1014.00 1014.05 1014.16 1014.37 1014.67 1015.06 1015.48 1015.87 1016.20 1016.42 1016.54 1016.58 1016.58 1016.60 1016.67 1016.83 1017.09
1007.98 1007.84 1007.63 1007.45 1007.43 1007.62 1008.05 1008.67 1009.39 1010.07 1010.62 1010.93 1010.99 1010.83 1010.51 1010.15 1009.89 1009.81 1009.97 1010.38 1010.98 1011.70 1012.43 1013.07 1013.56 1013.88 1014.06 1014.14 1014.20 1014.29 1014.48 1014.77 1015.14 1015.55 1015.94 1016.27 1016.51 1016.63 1016.68 1016.69 1016.70 1016.79 1016.96 1017.23
1007.51 1007.31 1007.08 1006.94 1007.01 1007.35 1007.94 1008.73 1009.58 1010.36 1010.93 1011.21 1011.17 1010.85 1010.35 1009.80 1009.36 1009.15 1009.23 1009.61 1010.25 1011.05 1011.90 1012.68 1013.31 1013.76 1014.03 1014.18 1014.28 1014.39 1014.58 1014.86 1015.22 1015.62 1016.01 1016.35 1016.59 1016.73 1016.79 1016.81 1016.83 1016.92 1017.10 1017.37
1006.96 1006.73 1006.54 1006.49 1006.69 1007.19 1007.96 1008.91 1009.89 1010.75 1011.33 1011.55 1011.39 1010.89 1010.18 1009.41 1008.77 1008.39 1008.35 1008.67 1009.31 1010.16 1011.11 1012.02 1012.79 1013.38 1013.78 1014.04 1014.21 1014.38 1014.59 1014.88 1015.24 1015.65 1016.04 1016.39 1016.65 1016.81 1016.89 1016.92 1016.96 1017.05 1017.22 1017.49
1006.40 1006.19 1006.06 1006.12 1006.47 1007.14 1008.07 1009.16 1010.25 1011.15 1011.72 1011.88 1011.58 1010.92 1010.01 1009.03 1008.18 1007.61 1007.43 1007.66 1008.25 1009.12 1010.13 1011.14 1012.04 1012.76 1013.30 1013.68 1013.95 1014.20 1014.46 1014.78 1015.17 1015.59 1016.01 1016.38 1016.67 1016.86 1016.97 1017.02 1017.07 1017.16 1017.32 1017.56
1005.89 1005.72 1005.67 1005.84 1006.33 1007.13 1008.19 1009.38 1010.53 1011.46 1012.01 1012.09 1011.70 1010.89 1009.82 1008.67 1007.65 1006.92 1006.59 1006.71 1007.23 1008.07 1009.09 1010.16 1011.14 1011.97 1012.63 1013.13 1013.51 1013.84 1014.18 1014.56 1014.99 1015.45 1015.91 1016.31 1016.64 1016.87 1017.01 1017.09 1017.16 1017.24 1017.38 1017.58
1005.47 1005.35 1005.37 1005.63 1006.21 1007.10 1008.23 1009.46 1010.63 1011.55 1012.07 1012.11 1011.65 1010.76 1009.60 1008.36 1007.22 1006.38 1005.94 1005.95 1006.39 1007.16 1008.14 1009.21 1010.23 1011.12 1011.86 1012.45 1012.93 1013.36 1013.78 1014.23 1014.72 1015.24 1015.74 1016.19 1016.57 1016.84 1017.02 1017.14 1017.21 1017.29 1017.40 1017.57
1005.16 1005.07 1005.14 1005.47 1006.09 1007.00 1008.12 1009.34 1010.47 1011.34 1011.82 1011.83 1011.36 1010.47 1009.31 1008.05 1006.90 1006.01 1005.51 1005.44 1005.79 1006.48 1007.39 1008.41 1009.41 1010.32 1011.10 1011.75 1012.31 1012.82 1013.32 1013.85 1014.40 1014.97 1015.53 1016.04 1016.46 1016.79 1017.01 1017.15 1017.24 1017.32 1017.41 1017.54
1004.94 1004.89 1005.00 1005.34 1005.94 1006.80 1007.85 1008.97 1010.01 1010.80 1011.23 1011.23 1010.78 1009.95 1008.87 1007.70 1006.62 1005.77 1005.28 1005.18 1005.46 1006.06 1006.88 1007.81 1008.75 1009.63 1010.41 1011.10 1011.71 1012.28 1012.85 1013.45 1014.07 1014.70 1015.31 1015.87 1016.34 1016.71 1016.97 1017.14 1017.25 1017.33 1017.41 1017.51
1004.83 1004.81 1004.93 1005.25 1005.80 1006.56 1007.47 1008.43 1009.31 1009.98 1010.33 1010.31 1009.91 1009.18 1008.24 1007.22 1006.28 1005.55 1005.12 1005.04 1005.29 1005.81 1006.54 1007.38 1008.25 1009.07 1009.83 1010.52 1011.16 1011.78 1012.41 1013.07 1013.75 1014.43 1015.08 1015.68 1016.19 1016.60 1016.89 1017.09 1017.22 1017.31 1017.39 1017.48
1004.82 1004.84 1004.97 1005.26 1005.72 1006.33 1007.06 1007.82 1008.49 1008.99 1009.22 1009.16 1008.79 1008.16 1007.38 1006.54 1005.79 1005.22 1004.90 1004.87 1005.13 1005.62 1006.28 1007.03 1007.82 1008.58 1009.31 1010.00 1010.66 1011.32 1012.00 1012.71 1013.43 1014.15 1014.84 1015.47 1016.01 1016.44 1016.76 1016.99 1017.14 1017.25 1017.34 1017.44
1004.92 1004.99 1005.14 1005.39 1005.75 1006.22 1006.73 1007.24 1007.67 1007.95 1008.02 1007.86 1007.48 1006.93 1006.28 1005.62 1005.05 1004.65 1004.47 1004.53 1004.82 1005.31 1005.93 1006.63 1007.36 1008.09 1008.80 1009.49 1010.17 1010.87 1011.59 1012.34 1013.09 1013.85 1014.56 1015.20 1015.76 1016.21 1016.55 1016.81 1016.99 1017.12 1017.24 1017.35
1005.11 1005.25 1005.43 1005.67 1005.95 1006.26 1006.56 1006.82 1006.98 1007.00 1006.86 1006.55 1006.11 1005.56 1004.99 1004.46 1004.05 1003.80 1003.75 1003.91 1004.27 1004.77 1005.39 1006.07 1006.78 1007.50 1008.21 1008.92 1009.64 1010.38 1011.15 1011.93 1012.72 1013.49 1014.22 1014.87 1015.44 1015.90 1016.26 1016.54 1016.74 1016.91 1017.05 1017.18
1005.37 1005.59 1005.83 1006.07 1006.29 1006.48 1006.59 1006.60 1006.48 1006.23 1005.84 1005.34 1004.76 1004.16 1003.60 1003.14 1002.82 1002.69 1002.75 1003.00 1003.42 1003.98 1004.62 1005.32 1006.05 1006.79 1007.53 1008.28 1009.05 1009.85 1010.66 1011.48 1012.30 1013.09 1013.82 1014.48 1015.04 1015.51 1015.89 1016.18 1016.41 1016.61 1016.78 1016.94
1005.65 1005.96 1006.26 1006.53 1006.73 1006.81 1006.76 1006.55 1006.18 1005.66 1005.01 1004.29 1003.54 1002.83 1002.21 1001.75 1001.48 1001.42 1001.56 1001.89 1002.38 1002.98 1003.68 1004.42 1005.19 1005.98 1006.78 1007.59 1008.42 1009.27 1010.13 1010.99 1011.84 1012.64 1013.38 1014.04 1014.60 1015.07 1015.45 1015.76 1016.02 1016.23 1016.43 1016.61
1005.90 1006.28 1006.64 1006.95 1007.13 1007.15 1006.98 1006.60 1006.01 1005.25 1004.37 1003.43 1002.50 1001.66 1000.96 1000.46 1000.19 1000.15 1000.34 1000.73 1001.28 1001.94 1002.69 1003.49 1004.32 1005.17 1006.03 1006.90 1007.79 1008.70 1009.61 1010.51 1011.37 1012.19 1012.93 1013.59 1014.15 1014.62 1015.00 1015.32 1015.58 1015.81 1016.02 1016.21
1006.06 1006.47 1006.87 1007.19 1007.37 1007.35 1007.09 1006.59 1005.84 1004.91 1003.85 1002.75 1001.67 1000.71 999.93 999.39 999.10 999.08 999.30 999.73 1000.32 1001.04 1001.84 1002.69 1003.57 1004.47 1005.39 1006.32 1007.26 1008.21 1009.15 1010.08 1010.96 1011.78 1012.52 1013.17 1013.73 1014.19 1014.57 1014.88 1015.14 1015.37 1015.58 1015.76
1006.09 1006.48 1006.86 1007.17 1007.33 1007.27 1006.96 1006.38 1005.55 1004.52 1003.36 1002.16 1001.00 999.98 999.16 998.60 998.32 998.32 998.57 999.03 999.67 1000.42 1001.26 1002.15 1003.07 1004.00 1004.95 1005.91 1006.87 1007.85 1008.81 1009.74 1010.63 1011.45 1012.18 1012.82 1013.36 1013.81 1014.17 1014.47 1014.72 1014.93 1015.12 1015.29
1005.98 1006.29 1006.59 1006.83 1006.93 1006.83 1006.48 1005.87 1005.01 1003.96 1002.79 1001.59 1000.44 999.43 998.64 998.12 997.88 997.93 998.22 998.72 999.39 1000.17 1001.03 1001.93 1002.86 1003.79 1004.74 1005.70 1006.66 1007.63 1008.58 1009.51 1010.38 1011.18 1011.90 1012.52 1013.04 1013.46 1013.80 1014.07 1014.29 1014.48 1014.64 1014.78
1005.77 1005.92 1006.07 1006.18 1006.18 1006.01 1005.62 1005.00 1004.17 1003.17 1002.07 1000.95 999.90 998.99 998.30 997.88 997.73 997.85 998.21 998.76 999.46 1000.26 1001.12 1002.01 1002.92 1003.83 1004.74 1005.66 1006.59 1007.53 1008.45 1009.34 1010.19 1010.96 1011.65 1012.25 1012.73 1013.12 1013.43 1013.66 1013.84 1013.99 1014.11 1014.22
1005.50 1005.42 1005.37 1005.29 1005.14 1004.87 1004.44 1003.83 1003.05 1002.15 1001.17 1000.20 999.32 998.58 998.05 997.78 997.76 997.99 998.43 999.04 999.77 1000.58 1001.43 1002.29 1003.15 1004.00 1004.86 1005.72 1006.59 1007.47 1008.34 1009.19 1009.99 1010.73 1011.39 1011.94 1012.39 1012.74 1013.00 1013.19 1013.33 1013.43 1013.52 1013.60
1005.19 1004.86 1004.56 1004.26 1003.94 1003.55 1003.06 1002.46 1001.74 1000.96 1000.14 999.36 998.67 998.14 997.80 997.71 997.84 998.19 998.72 999.40 1000.16 1000.97 1001.80 1002.62 1003.42 1004.21 1004.99 1005.78 1006.58 1007.39 1008.20 1008.99 1009.75 1010.44 1011.05 1011.57 1011.97 1012.28 1012.49 1012.63 1012.72 1012.78 1012.84 1012.90
1004.89 1004.29 1003.73 1003.21 1002.71 1002.19 1001.64 1001.04 1000.39 999.73 999.07 998.47 997.99 997.65 997.52 997.59 997.87 998.34 998.96 999.69 1000.47 1001.28 1002.08 1002.86 1003.60 1004.33 1005.04 1005.75 1006.48 1007.22 1007.97 1008.71 1009.41 1010.06 1010.63 1011.10 1011.46 1011.72 1011.88 1011.98 1012.02 1012.05 1012.08 1012.12
1004.58 1003.75 1002.98 1002.26 1001.60 1000.97 1000.37 999.77 999.18 998.62 998.10 997.66 997.34 997.18 997.20 997.42 997.82 998.38 999.06 999.83 1000.63 1001.44 1002.22 1002.95 1003.65 1004.32 1004.97 1005.62 1006.29 1006.97 1007.66 1008.34 1009.00 1009.60 1010.13 1010.56 1010.87 1011.09 1011.21 1011.26 1011.27 1011.27 1011.27 1011.31
Thickness
5803 5791 5784 5794 5804 5804 5803 5796 5789 5792 5804 5793 5783 5776 5777 5779 5776 5768 5763 5757 5750 5746 5745 5744 5742 5739 5735 5732 5731 5729 5728 5727 5727 5726 5725 5723 5723 5724 5723 5722 5722 5721 5720 5720
5786 5783 5798 5811 5813 5809 5802 5791 5787 5794 5804 5795 5783 5779 5784 5782 5777 5773 5766 5758 5751 5745 5742 5741 5739 5737 5734 5731 5729 5728 5726 5726 5725 5724 5724 5723 5723 5722 5721 5719 5719 5718 5717 5716
5781 5796 5810 5806 5804 5799 5796 5789 5787 5788 5798 5799 5784 5772 5776 5779 5780 5777 5772 5764 5757 5749 5743 5741 5739 5737 5735 5731 5729 5728 5726 5725 5724 5724 5724 5723 5721 5719 5717 5716 5715 5715 5714 5713
5793 5808 5807 5802 5801 5800 5787 5802 5800 5794 5783 5775 5778 5752 5766 5774 5772 5772 5769 5764 5760 5755 5749 5744 5740 5737 5735 5732 5730 5727 5725 5723 5723 5723 5722 5720 5717 5714 5714 5714 5713 5712 5711 5710
5790 5803 5802 5797 5803 5806 5799 5811 5801 5793 5782 5773 5774 5760 5761 5772 5764 5766 5768 5767 5764 5760 5754 5747 5744 5740 5738 5736 5731 5727 5724 5722 5722 5722 5720 5719 5717 5716 5715 5713 5710 5710 5709 5709
5797 5814 5813 5809 5815 5814 5811 5803 5793 5783 5769 5744 5759 5758 5752 5764 5772 5772 5772 5771 5769 5764 5759 5753 5750 5745 5741 5738 5733 5728 5724 5721 5722 5721 5719 5717 5716 5714 5713 5710 5708 5708 5708 5708
5782 5797 5812 5817 5802 5805 5801 5780 5750 5735 5730 5733 5760 5762 5764 5783 5794 5791 5781 5776 5774 5770 5763 5756 5751 5746 5742 5738 5734 5730 5725 5722 5722 5720 5719 5717 5716 5714 5712 5710 5709 5709 5707 5705
5764 5771 5798 5806 5799 5791 5792 5782 5751 5733 5728 5735 5753 5751 5775 5798 5803 5803 5796 5786 5780 5773 5768 5761 5755 5750 5745 5741 5737 5732 5727 5724 5722 5720 5718 5717 5716 5715 5713 5711 5711 5709 5708 5705
5765 5768 5796 5805 5808 5802 5786 5784 5790 5767 5751 5732 5739 5755 5775 5795 5797 5797 5793 5788 5781 5776 5771 5766 5761 5755 5749 5745 5740 5735 5729 5726 5724 5721 5719 5717 5716 5715 5713 5711 5711 5709 5706 5704
5777 5763 5780 5794 5803 5806 5804 5799 5786 5769 5740 5728 5736 5739 5750 5771 5783 5789 5790 5786 5783 5780 5775 5770 5765 5759 5754 5749 5744 5739 5733 5728 5726 5723 5720 5718 5716 5715 5713 5711 5709 5707 5705 5703
5779 5762 5768 5780 5780 5783 5790 5789 5784 5780 5771 5742 5728 5741 5775 5777 5787 5789 5791 5792 5787 5783 5779 5774 5769 5764 5758 5753 5747 5741 5735 5730 5727 5724 5722 5719 5717 5715 5712 5710 5709 5706 5704 5701
5779 5768 5761 5773 5794 5800 5792 5786 5780 5762 5758 5761 5746 5746 5792 5793 5796 5796 5796 5796 5793 5788 5785 5779 5773 5767 5761 5755 5750 5743 5738 5733 5729 5726 5723 5720 5717 5715 5712 5710 5708 5705 5703 5700
5769 5755 5742 5748 5762 5776 5776 5785 5787 5782 5770 5761 5748 5753 5794 5799 5797 5800 5801 5797 5794 5790 5786 5781 5775 5768 5763 5758 5753 5747 5741 5736 5732 5728 5723 5720 5718 5715 5712 5710 5707 5705 5702 5700
5768 5753 5744 5731 5730 5739 5748 5765 5779 5780 5766 5761 5764 5764 5780 5790 5795 5801 5801 5799 5795 5791 5787 5781 5775 5770 5765 5760 5755 5749 5744 5739 5734 5729 5725 5721 5718 5715 5712 5710 5707 5704 5702 5699
5761 5748 5754 5753 5749 5743 5739 5752 5767 5775 5778 5769 5769 5772 5782 5790 5797 5801 5803 5798 5794 5787 5785 5781 5775 5770 5766 5761 5756 5751 5746 5741 5737 5730 5726 5721 5719 5715 5712 5709 5706 5704 5701 5700
5750 5742 5747 5744 5750 5748 5746 5756 5764 5773 5784 5786 5782 5780 5796 5800 5801 5800 5801 5797 5791 5786 5784 5782 5777 5771 5766 5761 5756 5752 5746 5742 5737 5731 5726 5723 5719 5715 5711 5708 5705 5702 5700 5698
5736 5734 5730 5734 5747 5742 5737 5758 5768 5774 5789 5792 5782 5788 5797 5795 5793 5794 5799 5798 5793 5790 5787 5783 5778 5773 5768 5764 5759 5752 5747 5742 5736 5730 5727 5723 5718 5714 5710 5708 5704 5701 5698 5696
5729 5726 5728 5730 5732 5718 5753 5782 5781 5781 5789 5798 5797 5800 5800 5798 5802 5806 5806 5801 5796 5793 5789 5785 5781 5775 5770 5766 5760 5754 5748 5741 5735 5729 5726 5722 5718 5714 5710 5706 5703 5700 5697 5694
5742 5731 5725 5722 5716 5727 5752 5769 5774 5769 5772 5792 5792 5798 5802 5806 5800 5799 5807 5806 5801 5798 5794 5788 5784 5778 5771 5765 5759 5752 5745 5739 5733 5729 5725 5722 5718 5713 5709 5704 5701 5698 5695 5691
5742 5736 5722 5715 5708 5706 5731 5764 5778 5769 5755 5783 5790 5791 5796 5796 5780 5784 5802 5804 5800 5799 5795 5790 5785 5779 5770 5764 5758 5749 5743 5737 5733 5730 5726 5723 5718 5712 5708 5704 5700 5697 5693 5690
5721 5721 5717 5714 5708 5718 5738 5758 5765 5739 5742 5776 5784 5785 5787 5783 5783 5792 5799 5798 5798 5796 5792 5788 5782 5775 5768 5762 5754 5745 5740 5736 5734 5731 5725 5721 5716 5711 5707 5703 5699 5695 5691 5687
5705 5708 5710 5711 5704 5709 5741 5747 5739 5742 5765 5774 5777 5780 5781 5783 5787 5790 5791 5791 5790 5789 5786 5782 5776 5770 5765 5759 5751 5742 5737 5736 5732 5727 5721 5717 5713 5709 5706 5700 5695 5692 5688 5684
5699 5706 5709 5711 5714 5732 5743 5743 5747 5756 5760 5767 5772 5776 5778 5778 5779 5781 5781 5782 5783 5781 5779 5776 5769 5762 5758 5754 5747 5739 5735 5733 5728 5722 5716 5712 5709 5704 5702 5696 5691 5687 5684 5681
5706 5719 5715 5712 5720 5732 5739 5747 5750 5756 5759 5766 5770 5772 5774 5772 5773 5773 5774 5774 5773 5772 5770 5767 5762 5754 5749 5747 5743 5737 5733 5729 5722 5716 5711 5707 5703 5699 5696 5693 5690 5686 5683 5680
5702 5711 5710 5707 5715 5723 5731 5739 5744 5752 5757 5760 5764 5767 5767 5766 5765 5765 5765 5765 5764 5763 5762 5759 5753 5748 5743 5740 5736 5732 5728 5723 5715 5710 5705 5702 5698 5695 5691 5689 5687 5685 5683 5680
5700 5701 5698 5696 5709 5714 5719 5732 5741 5744 5746 5750 5754 5756 5760 5760 5758 5758 5756 5757 5756 5754 5753 5749 5746 5742 5738 5734 5729 5727 5723 5717 5710 5704 5700 5697 5695 5692 5689 5685 5683 5682 5679 5676